Location: Melbourne
(37.8666°S, 145.1333°E)
Time: 09:04:14
(UTC+11:00)

Hubble Space Telescope - Visible Passes

Search period start: 20 February 2018 00:00
Search period end: 02 March 2018 00:00
Orbit: 537 x 541 km, 28.5° (Epoch: 18 February)

Date Brightness Start Highest point End Pass type
(mag) Time Alt. Az. Time Alt. Az. Time Alt. Az.
20 Feb 2.4 21:00:54 10° NW 21:04:07 21° N 21:06:42 13° NE visible
21 Feb 2.5 20:50:39 10° NW 20:53:45 20° N 20:56:52 10° NE visible
22 Feb 2.7 20:40:25 10° NW 20:43:24 19° N 20:46:21 10° NE visible
